Location: Kernascl�den
(48.0062°N, 3.3198°W)
Time: 16:26:33
(UTC+00:00)

Cosmos 1844 - Pass Details

Date: 21 January 2021
Orbit: 821 x 869 km, 70.9° (Epoch: 28 February)

Event Time Altitude Azimuth Distance (km) Brightness Sun altitude
Rises 19:14:48 0° 212° (SSW) 3,376 7.3 -22.8°
Reaches altitude 10° 19:17:14 10° 214° (SW) 2,453 6.6 -23.2°
Maximum altitude 19:22:52 73° 300° (WNW) 889 3.8 -24.1°
Enters shadow 19:25:49 30° 19° (NNE) 1,498 4.8 -24.6°
